Weather Roundup
Issued by NWS Springfield, MO

Home | Current Version | Previous Version | Text Only | Print | Product List | Glossary On
Versions: 1 2 3 4 5 6 7 8 9 10 11 12 13 14 15 16 17 18 19 20 21 22 23 24 25 26 27 28 29 30 31 32 33 34 35 36 37 38 39 40 41 42 43 44 45 46 47 48 49 50
000
NZUS99 KSGF 021710
HRRSGF

HOURLY WEATHER
NATIONAL WEATHER SERVICE SPRINGFIELD MO
1200 PM CDT WED SEP 02 2015

......SGF CWA......

CITY           SKY/WX    TMP DP  RH WIND       PRES   REMARKS
SPRINGFIELD    SUNNY     84  69  60 S8        30.12S
JOPLIN         SUNNY     84  69  60 SW8       30.09S
WEST PLAINS    SUNNY     85  67  54 VRB6      30.15S
ROLLA          SUNNY     86  67  52 VRB5      30.11F
OSAGE BEACH    MOSUNNY   84  68  58 N3        30.12S
BRANSON        PTSUNNY   86  66  51 E5        30.14S

......SURROUNDING SGF CWA......

CITY           SKY/WX    TMP DP  RH WIND       PRES   REMARKS
CHANUTE        SUNNY     85  70  60 S15       30.06F
PARSONS        SUNNY     84  72  67 S7        30.07F
COFFEYVILLE    SUNNY     84  72  67 S10       30.06S
EMPORIA        PTSUNNY   86  68  54 S16G24    30.01F
GROVE OK       SUNNY     86  70  58 S8G16     30.09F HX  90
ROGERS AR      SUNNY     84  67  56 S12       30.13F
SILOAM SPRINGS SUNNY     84  66  54 S13       30.09F
HARRISON AR    SUNNY     84  69  60 S8        30.13F
NEAR YELLVILLE SUNNY     86  66  51 SE5       30.09F

......KANSAS AND MISSOURI......

CITY           SKY/WX    TMP DP  RH WIND       PRES   REMARKS
KANSAS CTY INT CLOUDY    74  69  85 SE13      30.05F
DOWNTOWN KC    LGT RAIN  78  70  76 E5        30.04F
COLUMBIA       PTSUNNY   84  70  62 SW8       30.10F
SEDALIA        PTSUNNY   83  68  60 SW7       30.11F
ST JOSEPH      CLOUDY    74  70  87 SE12      30.03F
ST LOUIS       MOSUNNY   90  67  46 W8        30.10F HX  93
SPIRIT OF STL  MOSUNNY   88  69  53 SW9       30.08F HX  92
KIRKSVILLE     CLOUDY    75  68  78 SW9       30.07F
WICHITA        MOSUNNY   89  67  47 S17G24    29.99S HX  92
TOPEKA         PTSUNNY   79  71  76 SE9       30.01F
OLATHE         LGT RAIN  76  71  85 SE7       30.05F

......TENNESSEE......

CITY           SKY/WX    TMP DP  RH WIND       PRES   REMARKS
MEMPHIS        MOSUNNY   90  69  50 VRB6      30.09F HX  94
NASHVILLE      PTSUNNY   88  66  48 N5        30.11F HX  90

......ARKANSAS.......

CITY           SKY/WX    TMP DP  RH WIND       PRES   REMARKS
FAYETTEVILLE   SUNNY     83  69  62 S7        30.12S
FT SMITH       SUNNY     86  65  49 SW8       30.08F
LITTLE ROCK    MOSUNNY   93  66  40 VRB5      30.08F HX  96

......OKLAHOMA.......

CITY           SKY/WX    TMP DP  RH WIND       PRES   REMARKS
TULSA          MOSUNNY   86  70  58 VRB3      30.04F HX  90
PONCA CITY     SUNNY     89  69  51 S9        30.01F HX  93
MCALESTER      SUNNY     86  70  58 S8        30.07F HX  90
OKLAHOMA CITY  MOSUNNY   87  68  52 S16       30.04F HX  90

......IOWA............

CITY           SKY/WX    TMP DP  RH WIND       PRES   REMARKS
DES MOINES     MOSUNNY   82  67  60 SW20G28   29.95F
QUAD CITIES    PTSUNNY   85  69  58 SW12      30.02S

......ILLINOIS........

CITY           SKY/WX    TMP DP  RH WIND       PRES   REMARKS
QUINCY         PTSUNNY   86  69  56 SW13      30.06F HX  90
CHICAGO        MOSUNNY   86  69  56 SW8       30.03F HX  90



USA.gov is the U.S. government's official web portal to all federal, state and local government web resources and services.